When you browse on this site, cookies collect data to enhance your experience and personalize the content and advertising you see.
Visit our Privacy Policy to learn more. By continuing to use the site, you agree to this use of cookies and data.
  • In Hungary
  • List of Countries
  • For 7 days
  • Water Temperature
  • Satellite Maps
  • Weather Map
  • News
  • Weather Widgets
  • user-avatar
    Login

    Hourly Weather Kota Kinabalu

    Today, 19 November, Monday

    Time Temperature Precipitation Wind Pressure Humidity
    00:00 +27°C° 0 mm 2 mps 757 mmHg 97%
    01:00 +27°C° 0 mm 2 mps 757 mmHg 97%
    02:00 +27°C° 0 mm 2 mps 757 mmHg 97%
    03:00 +27°C° 0 mm 2 mps 757 mmHg 97%
    04:00 +27°C° 0 mm 2 mps 757 mmHg 97%
    05:00 +27°C° 0 mm 2 mps 756 mmHg 97%
    06:00 +28°C° 0 mm 2 mps 757 mmHg 94%
    07:00 +29°C° 0 mm 1 mps 757 mmHg 91%
    08:00 +30°C° 0 mm 2 mps 757 mmHg 87%
    09:00 +31°C° 0 mm 2 mps 757 mmHg 80%
    10:00 +34°C° 0 mm 2 mps 757 mmHg 73%
    11:00 +35°C° 0 mm 3 mps 757 mmHg 66%
    12:00 +35°C° 0.3 mm 3 mps 756 mmHg 71%
    13:00 +34°C° 0.3 mm 3 mps 756 mmHg 76%
    14:00 +33°C° 0.3 mm 3 mps 756 mmHg 82%
    15:00 +31°C° 0.7 mm 3 mps 755 mmHg 86%
    16:00 +31°C° 0.7 mm 3 mps 755 mmHg 90%
    17:00 +30°C° 0.7 mm 3 mps 755 mmHg 94%
    18:00 +30°C° 0.6 mm 3 mps 756 mmHg 95%
    19:00 +29°C° 0.6 mm 3 mps 756 mmHg 96%
    20:00 +29°C° 0.6 mm 3 mps 756 mmHg 98%
    21:00 +29°C° 0.2 mm 3 mps 757 mmHg 98%
    22:00 +29°C° 0.2 mm 3 mps 757 mmHg 98%
    23:00 +29°C° 0.2 mm 2 mps 757 mmHg 98%

    Tomorrow, 20 November, Tuesday

    Time Temperature Precipitation Wind Pressure Humidity
    00:00 +28°C° 0.2 mm 2 mps 757 mmHg 98%
    01:00 +28°C° 0.2 mm 2 mps 756 mmHg 98%
    02:00 +28°C° 0.2 mm 1 mps 756 mmHg 98%
    03:00 +28°C° 0.1 mm 1 mps 756 mmHg 98%
    04:00 +28°C° 0.1 mm 1 mps 756 mmHg 98%
    05:00 +28°C° 0.1 mm 1 mps 756 mmHg 98%
    06:00 +28°C° 0.1 mm 1 mps 756 mmHg 97%
    07:00 +29°C° 0.1 mm 1 mps 756 mmHg 96%
    08:00 +29°C° 0.1 mm 1 mps 756 mmHg 95%
    09:00 +30°C° 0.2 mm 1 mps 756 mmHg 89%
    10:00 +31°C° 0.2 mm 1 mps 756 mmHg 84%
    11:00 +32°C° 0.2 mm 1 mps 756 mmHg 78%
    12:00 +32°C° 0.3 mm 1 mps 756 mmHg 80%
    13:00 +32°C° 0.3 mm 1 mps 755 mmHg 82%
    14:00 +31°C° 0.3 mm 1 mps 755 mmHg 84%
    15:00 +31°C° 0.2 mm 1 mps 754 mmHg 87%
    16:00 +30°C° 0.2 mm 1 mps 754 mmHg 90%
    17:00 +30°C° 0.2 mm 1 mps 754 mmHg 93%
    18:00 +29°C° 0 mm 1 mps 755 mmHg 94%
    19:00 +27°C° 0 mm 0 mps 755 mmHg 95%
    20:00 +26°C° 0 mm 0 mps 756 mmHg 97%
    21:00 +26°C° 0 mm 0 mps 756 mmHg 97%
    22:00 +28°C° 0 mm 1 mps 756 mmHg 97%
    23:00 +28°C° 0 mm 1 mps 756 mmHg 97%

    Day after tomorrow, 21 November, Wednesday

    Time Temperature Precipitation Wind Pressure Humidity
    00:00 +28°C° 0 mm 1 mps 755 mmHg 98%
    01:00 +28°C° 0 mm 1 mps 755 mmHg 98%
    02:00 +28°C° 0 mm 2 mps 755 mmHg 98%
    03:00 +28°C° 0 mm 2 mps 755 mmHg 98%
    04:00 +28°C° 0 mm 2 mps 754 mmHg 98%
    05:00 +27°C° 0 mm 2 mps 754 mmHg 97%
    06:00 +28°C° 0.1 mm 2 mps 755 mmHg 94%
    07:00 +29°C° 0.1 mm 2 mps 755 mmHg 90%
    08:00 +29°C° 0.1 mm 2 mps 756 mmHg 87%
    09:00 +30°C° 0.1 mm 3 mps 755 mmHg 80%
    10:00 +31°C° 0.1 mm 3 mps 755 mmHg 73%
    11:00 +34°C° 0.1 mm 4 mps 755 mmHg 65%
    12:00 +34°C° 0.3 mm 4 mps 754 mmHg 67%
    13:00 +34°C° 0.3 mm 4 mps 754 mmHg 68%
    14:00 +34°C° 0.3 mm 4 mps 753 mmHg 69%
    15:00 +33°C° 0.8 mm 4 mps 753 mmHg 77%
    16:00 +32°C° 0.8 mm 4 mps 753 mmHg 84%
    17:00 +30°C° 0.8 mm 3 mps 753 mmHg 92%
    18:00 +29°C° 0.5 mm 3 mps 753 mmHg 93%
    19:00 +29°C° 0.5 mm 3 mps 754 mmHg 95%
    20:00 +28°C° 0.5 mm 2 mps 755 mmHg 96%
    21:00 +28°C° 0.4 mm 3 mps 755 mmHg 96%
    22:00 +28°C° 0.4 mm 3 mps 755 mmHg 96%
    23:00 +28°C° 0.4 mm 3 mps 755 mmHg 96%

    22 November, Thursday

    Time Temperature Precipitation Wind Pressure Humidity
    00:00 +27°C° 0.2 mm 3 mps 755 mmHg 96%
    01:00 +27°C° 0.2 mm 3 mps 755 mmHg 96%
    02:00 +27°C° 0.2 mm 3 mps 754 mmHg 97%
    03:00 +27°C° 0.1 mm 3 mps 754 mmHg 97%
    04:00 +27°C° 0.1 mm 4 mps 754 mmHg 97%
    05:00 +27°C° 0.1 mm 4 mps 754 mmHg 98%
    06:00 +28°C° 0.1 mm 4 mps 755 mmHg 94%
    07:00 +29°C° 0.1 mm 4 mps 755 mmHg 91%
    08:00 +30°C° 0.1 mm 4 mps 756 mmHg 88%
    09:00 +33°C° 0 mm 4 mps 756 mmHg 78%
    10:00 +35°C° 0 mm 4 mps 756 mmHg 67%
    11:00 +37°C° 0 mm 4 mps 756 mmHg 56%
    12:00 +36°C° 0.1 mm 4 mps 755 mmHg 57%
    13:00 +36°C° 0.1 mm 4 mps 754 mmHg 58%
    14:00 +36°C° 0.1 mm 4 mps 753 mmHg 58%
    15:00 +35°C° 0.2 mm 4 mps 753 mmHg 65%
    16:00 +34°C° 0.2 mm 4 mps 753 mmHg 72%
    17:00 +33°C° 0.2 mm 3 mps 753 mmHg 79%
    18:00 +31°C° 0.3 mm 3 mps 754 mmHg 85%
    19:00 +30°C° 0.3 mm 3 mps 755 mmHg 91%
    20:00 +28°C° 0.3 mm 2 mps 756 mmHg 96%
    21:00 +28°C° 0.9 mm 2 mps 756 mmHg 96%
    22:00 +28°C° 0.9 mm 2 mps 756 mmHg 97%
    23:00 +28°C° 0.9 mm 2 mps 756 mmHg 97%

    23 November, Friday

    Time Temperature Precipitation Wind Pressure Humidity
    00:00 +28°C° 0.5 mm 2 mps 756 mmHg 97%
    01:00 +28°C° 0.5 mm 3 mps 756 mmHg 97%
    02:00 +28°C° 0.5 mm 3 mps 755 mmHg 97%
    03:00 +28°C° 0.6 mm 3 mps 755 mmHg 97%
    04:00 +28°C° 0.6 mm 3 mps 755 mmHg 98%
    05:00 +28°C° 0.6 mm 4 mps 755 mmHg 98%
    06:00 +29°C° 0.4 mm 3 mps 756 mmHg 96%
    07:00 +29°C° 0.4 mm 3 mps 756 mmHg 94%
    08:00 +30°C° 0.4 mm 2 mps 757 mmHg 92%
    09:00 +30°C° 1.2 mm 2 mps 757 mmHg 90%
    10:00 +31°C° 1.2 mm 2 mps 757 mmHg 89%
    11:00 +31°C° 1.2 mm 2 mps 757 mmHg 87%
    12:00 +31°C° 1.4 mm 3 mps 756 mmHg 87%
    13:00 +33°C° 1.4 mm 3 mps 755 mmHg 88%
    14:00 +33°C° 1.4 mm 3 mps 755 mmHg 88%
    15:00 +31°C° 2.2 mm 2 mps 755 mmHg 91%
    16:00 +30°C° 2.2 mm 2 mps 755 mmHg 93%
    17:00 +30°C° 2.2 mm 2 mps 755 mmHg 96%
    18:00 +29°C° 1.9 mm 2 mps 756 mmHg 96%
    19:00 +29°C° 1.9 mm 1 mps 756 mmHg 97%
    20:00 +29°C° 1.9 mm 1 mps 757 mmHg 97%
    21:00 +29°C° 1.6 mm 1 mps 757 mmHg 97%
    22:00 +28°C° 1.6 mm 2 mps 757 mmHg 97%
    23:00 +28°C° 1.6 mm 2 mps 758 mmHg 97%

    24 November, Saturday

    Time Temperature Precipitation Wind Pressure Humidity
    00:00 +28°C° 1.2 mm 2 mps 757 mmHg 97%
    01:00 +28°C° 1.2 mm 2 mps 757 mmHg 97%
    02:00 +28°C° 1.2 mm 2 mps 757 mmHg 97%
    03:00 +28°C° 1 mm 2 mps 757 mmHg 97%
    04:00 +28°C° 1 mm 2 mps 757 mmHg 97%
    05:00 +28°C° 1 mm 2 mps 757 mmHg 97%
    06:00 +28°C° 1.4 mm 2 mps 758 mmHg 97%
    07:00 +28°C° 1.4 mm 2 mps 758 mmHg 97%
    08:00 +29°C° 1.4 mm 2 mps 759 mmHg 96%
    09:00 +29°C° 0.8 mm 2 mps 758 mmHg 94%
    10:00 +30°C° 0.8 mm 2 mps 758 mmHg 91%
    11:00 +31°C° 0.8 mm 2 mps 758 mmHg 89%
    12:00 +31°C° 1.3 mm 2 mps 757 mmHg 90%
    13:00 +31°C° 1.3 mm 1 mps 756 mmHg 91%
    14:00 +30°C° 1.3 mm 1 mps 756 mmHg 93%
    15:00 +30°C° 1.1 mm 1 mps 756 mmHg 93%
    16:00 +30°C° 1.1 mm 1 mps 756 mmHg 94%
    17:00 +27°C° 1.1 mm 0 mps 756 mmHg 95%
    18:00 +29°C° 0.5 mm 1 mps 756 mmHg 95%
    19:00 +28°C° 0.5 mm 1 mps 757 mmHg 95%
    20:00 +28°C° 0.5 mm 1 mps 757 mmHg 95%
    21:00 +28°C° 0.3 mm 1 mps 758 mmHg 95%
    22:00 +28°C° 0.3 mm 1 mps 758 mmHg 95%
    23:00 +27°C° 0.3 mm 1 mps 758 mmHg 95%
    Show more